Vertical_Velocity
-7 -7 -8 -5 -3 -3 -6 -4 -4 -5 -6 -4 -4 -5 -5 -6 -5 -3 -1 -0 -0 -0 1 4 5 5 3 3 1 -0 -1 -1 0 1 2 2 1 1 -0 -2 -3 -3 -1 -5 -6 -2 6 11 9 4 -0 -1 -1 -1 -1 -1 -1 -1 -1 -1 0 1 4 4 0 -8 -20 -9 1 6 5 7 9 10 11 8 5 2 -1 -0 0 0 -0 1 2 2
-6 -7 -7 -3 -1 -2 -7 -6 -4 -2 -3 -5 -5 -5 -5 -5 -5 -5 -4 -2 -2 -1 -1 1 3 4 4 5 5 4 2 2 2 2 2 2 2 1 0 -2 -2 -1 -2 -6 -6 -1 8 15 13 6 -0 -1 -2 -1 -1 -1 -1 -1 -1 -1 0 2 5 6 5 -2 -17 -5 3 6 5 3 4 5 8 7 4 1 -1 1 1 0 -1 1 2 3
-6 -7 -7 -3 -2 -3 -7 -7 -5 -2 -0 -2 -2 -2 -2 -5 -6 -6 -6 -5 -4 -3 -3 -2 -1 1 4 6 7 7 5 3 3 2 1 1 2 2 1 -0 0 1 -2 -5 -3 4 12 15 12 6 -0 -0 1 2 1 3 2 1 -1 -1 -0 1 3 6 6 1 -11 -5 2 7 7 5 4 4 5 4 1 -1 -2 1 1 0 -1 0 2 3
-4 -5 -7 -5 -5 -5 -6 -6 -5 -3 0 0 2 1 -1 -5 -6 -6 -5 -5 -5 -5 -3 -3 -2 -1 2 5 7 8 7 4 3 1 -0 -0 1 2 1 2 2 1 -3 -2 3 9 13 11 9 4 -1 -2 0 2 1 5 6 5 2 1 0 0 2 4 5 1 -8 -7 -0 6 7 7 6 6 6 2 -1 -2 1 2 1 0 -1 1 4 5
-3 -3 -6 -5 -5 -6 -5 -4 -3 -2 -0 1 1 -1 -5 -7 -7 -6 -6 -6 -6 -5 -3 -3 -2 -1 1 3 5 7 7 4 2 1 -1 -1 -0 1 2 3 2 -1 -5 2 8 11 10 8 6 3 -1 -2 -2 -1 -0 3 4 5 5 5 4 2 1 2 3 -0 -10 -11 -4 4 6 7 8 9 10 7 3 1 4 3 2 -0 -1 3 6 8
-2 -2 -4 -4 -4 -5 -6 -5 -3 -1 -1 -1 -1 -2 -4 -6 -7 -7 -7 -6 -5 -4 -3 -2 -1 0 1 2 4 5 6 3 1 -1 -1 -1 -0 1 3 4 0 -4 -4 3 5 5 6 7 6 3 -1 -2 -3 -2 -1 1 1 0 1 6 7 5 3 3 3 -1 -14 -15 -7 2 5 8 9 9 10 11 8 5 5 4 1 -1 -2 4 7 9
-4 -3 -2 -3 -4 -6 -8 -7 -5 -3 -2 -2 -2 -2 -2 -4 -7 -8 -6 -4 -5 -5 -5 -2 0 2 0 2 3 4 5 3 -0 -2 -2 -1 -1 -1 1 1 -2 -4 -2 2 1 1 5 7 5 2 -0 -3 -4 -3 -1 1 -1 -3 -3 2 4 5 4 4 4 -0 -15 -15 -7 1 5 9 9 7 5 8 9 8 4 4 1 -1 -2 5 8 10
-6 -6 -3 -3 -5 -7 -9 -8 -5 -2 0 -0 -1 -2 -2 -4 -6 -6 -3 -4 -6 -8 -7 -4 -1 1 -1 0 3 5 5 3 1 -1 -2 -3 -4 -4 -1 -1 -3 -3 1 1 1 2 6 6 5 3 0 -3 -5 -5 -3 0 -0 -3 -3 -1 1 3 4 4 5 1 -10 -9 -4 2 5 9 9 6 2 4 7 8 4 3 1 -0 2 8 10 9
-3 -4 -4 -3 -3 -4 -6 -6 -3 2 5 3 1 -1 -3 -4 -5 -3 -1 -4 -6 -8 -7 -6 -4 -2 -1 -2 0 2 3 3 2 1 -1 -4 -5 -4 -1 0 0 1 2 1 1 3 5 5 4 3 1 -2 -4 -6 -6 -2 -0 -1 -2 -2 -1 1 3 5 6 4 -3 -5 -2 2 6 7 7 5 2 1 4 7 6 3 0 0 6 10 10 8
1 2 4 2 1 0 -1 -3 0 4 6 3 1 -1 -2 -2 -1 0 -1 -4 -6 -7 -8 -8 -7 -6 -4 -4 -2 -1 -0 1 1 0 -1 -3 -2 3 8 8 6 4 2 1 1 2 3 4 4 3 2 -1 -3 -6 -8 -6 -2 0 -1 -1 -1 -1 2 5 7 6 1 -4 -4 -1 4 5 5 5 5 1 1 3 3 2 0 0 4 5 6 7
2 4 6 7 9 13 20 23 21 15 5 2 -0 -1 -0 2 5 7 5 -1 -5 -9 -11 -11 -10 -9 -7 -6 -4 -2 -1 -1 -1 -2 -2 -4 1 9 18 17 12 5 1 0 1 2 2 2 2 2 2 0 -2 -4 -7 -8 -5 -1 -0 -1 -1 -1 2 5 7 8 4 -5 -7 -4 1 3 5 6 7 4 3 1 -3 -6 -6 -4 0 -1 2 6
1 2 4 4 11 21 31 26 14 3 -2 -1 -1 -1 -1 1 4 6 2 0 -3 -8 -12 -12 -12 -11 -9 -7 -6 -5 -3 -2 -2 -3 -5 -4 0 10 24 23 14 4 -1 0 1 1 1 1 1 2 2 1 -1 -3 -5 -7 -5 -2 -0 -0 -1 -1 1 5 7 7 3 -5 -6 -5 -4 -1 3 6 8 7 5 2 -5 -11 -14 -11 -5 -6 1 8
1 2 3 3 4 6 9 6 3 0 1 1 0 -1 -1 -0 1 2 -1 -3 -2 -0 -3 -9 -13 -14 -13 -10 -8 -6 -5 -2 -3 -5 -8 -7 -3 8 26 23 12 0 -3 -0 1 1 0 0 0 0 1 0 -1 -2 -4 -5 -4 -2 -0 0 0 0 2 4 5 4 -0 -4 -4 -3 -4 -5 -2 2 6 6 6 4 -1 -6 -10 -10 -5 -5 5 14
1 1 1 0 -0 -0 -0 0 -0 -0 1 1 0 -1 -1 -2 -1 -1 -2 -5 -3 2 5 -3 -9 -13 -17 -14 -11 -7 -4 -3 -4 -8 -12 -11 -5 8 27 20 8 -2 -3 -1 0 1 1 -0 -1 -1 -0 -1 -1 -2 -3 -4 -3 -2 -1 0 1 3 4 3 2 1 -2 -2 1 4 2 -2 -1 3 6 5 5 4 3 -1 -3 -4 -3 2 12 19
1 1 0 -1 -2 -2 -2 -1 0 0 0 0 -1 -1 -1 -1 -1 -2 -4 -5 -6 -5 -3 -3 -4 -7 -14 -15 -12 -8 -4 -4 -6 -9 -14 -15 -6 10 29 19 7 -2 -3 -1 -0 1 2 0 -1 -1 -1 -1 -2 -2 -3 -4 -3 -2 -2 -1 1 3 5 3 2 2 0 -0 3 7 7 4 6 8 8 5 3 2 3 1 -1 -2 -3 -1 9 15
1 1 1 -0 -2 -3 -3 -2 -1 -1 -2 -2 -1 -1 0 1 1 -0 -2 -2 -5 -7 -8 -5 -3 -3 -8 -11 -11 -8 -5 -5 -6 -9 -14 -17 -6 11 27 15 5 -2 -2 -1 0 1 1 0 -0 -1 -2 -2 -1 -1 -2 -3 -3 -2 -2 -2 -1 1 4 4 5 6 3 -1 -1 3 5 8 10 11 9 6 2 -0 -1 -0 -1 -2 -3 -2 1 3
1 1 1 0 -1 -2 -3 -3 -3 -4 -4 -2 -1 -0 1 0 -0 -0 -0 0 -1 -3 -4 -1 0 1 -1 -6 -9 -9 -5 -3 -5 -8 -12 -10 3 17 22 9 1 -2 -2 -1 -1 -1 0 0 -0 -1 -2 -1 -1 -1 -1 -1 -2 -2 -2 -2 -2 -1 1 5 8 7 -1 -7 -7 -3 3 7 10 9 7 6 3 -0 -4 -3 -3 -3 -2 -1 0 1
1 1 0 0 0 -1 -3 -3 -4 -4 -3 -2 -1 -1 0 -0 0 0 1 2 1 1 0 2 3 4 2 -3 -6 -6 -3 -1 -1 -2 -4 3 13 19 15 5 -1 -3 -3 -2 -2 -2 -0 0 0 -1 -2 -1 -0 -0 -0 -1 -1 -2 -2 -2 -2 -1 0 5 9 8 -4 -14 -16 -12 -4 3 6 6 5 5 4 2 -2 -3 -4 -3 -1 1 3 4
1 1 0 0 -0 -1 -2 -2 -3 -3 -2 -2 -2 -2 -2 -1 0 1 2 2 3 3 2 2 3 3 1 -2 -4 -4 -2 -1 -3 -3 -1 8 12 12 7 1 -2 -3 -3 -3 -3 -2 -0 1 1 0 0 0 1 1 1 -0 -1 -2 -3 -3 -2 -1 0 3 6 6 -3 -13 -15 -12 -6 -1 1 2 3 4 4 3 2 -1 -1 -1 1 3 3 4
1 1 0 -0 -1 -2 -2 -2 -2 -2 -2 -2 -2 -2 -2 -1 -0 0 1 2 2 2 2 1 2 5 8 6 1 -4 -3 -2 -2 -1 2 8 8 6 3 -0 -2 -3 -3 -2 -2 -1 0 0 0 1 1 2 2 1 1 0 -1 -2 -4 -3 -2 -1 0 2 4 3 -4 -9 -8 -5 -3 -1 0 1 3 4 4 4 6 2 3 5 6 6 6 5
1 1 1 0 -1 -2 -2 -2 -2 -2 -2 -2 -2 -1 -1 -1 -1 0 1 1 1 1 2 -0 1 2 2 -1 -2 -1 -0 -0 1 3 4 5 4 2 0 -1 -1 -2 -2 -1 -1 -0 0 -0 -0 0 1 1 2 1 1 1 -0 -2 -4 -3 -2 -1 -0 0 1 0 -6 -9 -6 -1 1 0 1 2 4 5 6 7 7 4 4 6 9 10 9 7
1 1 0 0 0 -0 -1 -2 -2 -2 -2 -2 -2 -2 -2 -2 -1 -0 1 2 2 2 1 0 -0 0 0 2 3 3 2 -0 1 2 2 0 -1 -1 -0 0 -0 -0 -0 0 1 1 1 -0 -1 -1 1 2 2 2 1 1 -0 -1 -3 -0 1 0 -0 -1 1 0 -5 -9 -6 1 5 3 3 3 5 6 7 7 8 2 0 2 8 12 11 7
1 0 0 0 1 1 -0 -2 -3 -3 -3 -2 -2 -3 -3 -1 -0 -0 1 1 2 2 2 -1 -3 -4 -1 4 5 3 -0 -2 -2 -1 -1 -1 -0 0 0 1 1 1 1 2 3 3 2 -0 -1 -1 2 3 3 3 2 1 -1 -2 -2 1 4 4 -0 1 2 1 -3 -7 -5 -0 6 8 8 7 6 6 7 7 9 2 -1 1 8 12 11 8
0 0 -0 0 1 1 -0 -2 -2 -3 -3 -3 -3 -3 -2 0 1 1 0 0 -0 -0 -0 -3 -6 -7 -4 1 2 0 -2 -3 -4 -3 -1 1 2 3 1 1 2 2 3 3 3 3 2 0 -1 -0 3 4 4 3 2 1 -1 -2 -3 0 5 6 -1 2 3 3 1 -1 -1 2 6 9 10 9 8 8 7 8 9 5 0 1 11 12 11 8
1 0 -0 0 1 1 -1 -2 -2 -2 -2 -3 -4 -3 -2 0 1 1 0 -1 -2 -2 -2 -2 -3 -4 -2 1 0 -2 -5 -6 -6 -4 -2 1 2 2 2 2 3 3 2 2 3 3 2 1 1 2 4 5 4 3 3 1 -1 -2 -3 -1 1 2 -2 2 3 4 5 4 5 6 7 8 7 6 6 6 7 8 8 6 2 2 10 12 11 9
2 1 0 0 0 -0 -1 -2 -1 -1 -1 -2 -3 -4 -3 -0 1 1 1 -0 -1 -1 -2 -1 -1 -1 -1 -2 -4 -6 -8 -9 -7 -5 -5 -1 2 3 4 3 2 1 -1 0 2 3 3 3 3 4 5 4 4 3 2 1 -1 -2 -1 -1 -1 -1 -2 1 2 3 7 9 10 10 8 7 6 5 4 5 5 6 7 4 2 3 8 10 12 12
2 1 1 0 -0 -1 -1 -1 -1 -1 -1 -1 -3 -4 -3 -1 1 1 1 1 1 -0 -1 -2 -2 -2 -2 -3 -5 -6 -8 -9 -8 -8 -10 -3 4 8 7 4 1 -2 -2 -0 2 3 3 4 4 5 5 4 4 3 2 1 0 -0 -0 -0 -0 -1 -2 1 1 1 5 8 10 11 7 5 5 5 5 4 3 3 4 2 0 0 3 6 10 13
2 2 1 1 0 -0 -1 -1 -1 -1 -1 -2 -2 -2 -1 1 2 2 2 2 1 0 -1 -1 -1 -2 -1 1 2 0 -5 -8 -9 -11 -14 -2 7 12 10 5 0 -3 -2 1 4 5 3 3 4 5 6 5 4 4 4 3 3 2 2 0 -1 -2 -3 -1 0 1 1 4 6 6 5 4 4 4 4 2 1 -0 0 -0 -1 -1 0 2 5 9
2 2 2 1 1 0 -0 -1 -1 -1 -1 -2 -2 -1 -0 1 2 1 1 1 1 1 -0 -0 -1 -1 -2 2 5 4 -2 -7 -10 -13 -16 3 12 13 11 5 1 -1 -1 1 5 7 5 4 5 6 6 7 6 6 5 6 6 6 5 4 2 1 -0 -0 1 1 -1 1 1 1 2 4 4 3 2 0 -1 -1 -1 -2 -2 -1 2 2 3 4
2 2 2 1 1 0 0 0 0 -0 -1 -1 -1 -0 -0 1 1 1 1 2 2 1 0 0 -0 -0 -0 0 2 3 4 -3 -8 -12 -11 9 16 14 9 6 4 2 -2 -1 4 9 10 9 8 7 7 8 7 7 6 5 5 6 8 8 8 8 7 6 6 5 2 3 3 2 3 3 3 2 1 -0 -0 1 1 -1 -1 -0 2 3 4 4
0 0 0 0 0 0 0 1 1 0 0 -0 -1 -1 -0 1 1 2 2 2 2 1 0 -0 -0 0 1 3 2 4 14 4 -3 -6 -7 13 17 13 10 8 8 6 -1 -5 -5 -0 9 12 13 11 9 7 8 8 7 5 4 5 6 9 11 13 13 12 11 10 9 8 8 7 7 7 5 3 2 1 1 2 4 2 1 1 1 1 1 1
0 0 -0 -0 -0 0 0 1 1 1 0 -1 -1 -1 -1 0 1 2 2 2 1 0 -0 -0 -0 0 1 2 0 2 15 9 2 -3 -4 10 13 11 11 11 11 10 8 3 -6 -12 -6 7 14 17 13 9 9 10 9 7 6 5 5 6 11 15 15 13 13 13 13 14 13 13 12 12 11 9 6 5 4 3 5 5 4 2 -0 -2 -3 -3
2 2 1 1 0 0 0 1 1 1 0 -0 -1 -1 -1 -0 1 2 2 2 2 1 0 -0 -1 -0 0 1 -1 -1 6 8 3 -2 -3 4 7 9 12 15 15 15 15 14 5 -6 -13 -3 7 15 15 12 10 10 10 9 9 8 6 4 8 12 14 13 12 12 12 15 17 17 15 15 15 14 12 11 9 8 8 8 6 4 -1 -5 -7 -7
3 3 2 1 1 1 1 1 1 1 1 0 -0 -1 -1 -1 -0 1 1 2 3 2 1 -0 -1 -1 -1 -1 -1 0 5 9 5 -2 -5 -1 2 5 10 15 18 18 14 13 9 4 -3 -2 2 8 14 14 12 10 10 12 13 12 9 4 3 5 9 8 6 6 7 8 10 12 14 16 17 16 15 15 14 13 12 12 11 9 4 -2 -6 -8
3 3 2 2 1 1 2 1 1 1 1 1 0 -0 -1 -1 -1 -1 0 2 3 3 2 -0 -1 -2 -2 -3 -2 1 7 10 6 -1 -7 -4 -2 1 6 13 18 18 10 4 1 0 3 5 4 3 6 12 14 14 13 13 14 14 13 8 5 4 5 3 1 -0 1 1 2 4 7 10 12 13 13 13 12 11 11 11 12 12 11 7 3 -1
2 2 1 1 1 1 1 1 1 1 1 1 1 0 -1 -1 -1 -1 -1 1 2 3 2 0 -1 -2 -1 -2 -2 0 8 9 6 0 -6 -6 -6 -4 0 10 17 19 12 3 -4 -8 -5 4 7 5 -2 1 7 14 17 15 13 12 14 13 10 8 9 6 3 -1 -1 -1 0 2 3 4 5 7 8 9 8 8 8 9 9 9 9 10 10 9
2 1 1 1 1 1 1 1 1 1 1 1 1 0 0 -0 -1 -1 -0 1 2 2 2 0 -1 -1 -0 -1 -1 1 8 10 7 2 -2 -4 -5 -6 -6 8 17 20 16 4 -4 -10 -13 -6 3 8 4 -3 -2 5 15 17 14 12 14 14 12 11 13 13 10 5 1 -1 -0 1 3 3 3 3 5 7 8 9 10 12 11 10 8 9 10 11
0 0 -0 -0 0 0 1 1 1 1 1 1 0 0 0 0 1 1 1 1 2 2 1 -0 -1 -2 -1 -0 0 3 9 12 10 5 0 0 -2 -6 -12 3 15 23 23 9 -4 -13 -18 -17 -9 1 9 5 1 0 6 10 11 11 14 14 11 8 10 14 15 12 7 2 0 0 2 3 2 2 4 7 8 9 11 14 15 14 12 11 11 12
-1 -1 -1 -1 -1 -0 0 1 1 1 1 1 0 0 0 1 2 2 3 3 2 1 -1 -2 -2 -2 -2 -1 0 3 8 12 11 7 2 3 -1 -7 -13 -1 12 23 28 21 10 -1 -11 -18 -20 -17 -9 -1 4 8 10 8 5 4 8 12 13 12 11 13 16 16 12 4 0 -0 3 4 4 3 5 8 9 8 6 8 10 11 8 7 8 9
-0 0 -0 0 1 1 2 2 2 2 1 1 0 0 0 1 2 3 4 3 1 -1 -4 -4 -3 -2 -1 -1 0 2 5 9 10 8 4 3 -1 -7 -13 -4 8 18 25 25 22 17 10 2 -6 -14 -22 -18 -10 1 11 14 10 3 -3 3 12 18 18 14 15 16 15 6 -0 -3 1 4 5 4 5 6 5 3 -1 0 3 6 4 -2 -4 -2
-0 -1 -1 -0 0 1 2 3 3 2 1 0 0 0 0 1 2 3 4 3 1 -2 -4 -4 -3 -2 -0 1 2 2 3 6 9 11 9 4 -1 -7 -15 -5 6 15 20 18 17 14 9 6 4 2 -2 -9 -9 -5 0 9 14 11 -1 -6 -2 7 12 10 11 13 17 14 8 2 -0 3 4 4 3 4 4 3 -0 -3 0 6 10 5 -2 -8
-1 -1 -1 -1 -0 1 2 3 2 1 0 -0 -0 0 1 2 3 4 4 2 1 -1 -2 -1 -1 0 2 4 5 4 3 6 11 14 12 6 -0 -7 -13 -6 4 13 17 14 12 10 8 3 1 -1 -1 -4 -5 -2 4 9 13 14 8 -3 -4 0 8 14 15 14 15 19 17 11 3 1 1 1 -0 -0 2 4 4 1 1 3 7 10 10 5
-1 -0 1 1 2 2 3 2 1 0 -0 -1 -1 -0 1 2 3 4 3 1 1 0 1 1 1 2 5 8 8 8 6 8 12 14 11 6 1 -5 -11 -6 3 11 16 12 10 11 13 13 11 8 3 -8 -17 -19 -10 2 10 14 13 3 -8 -12 -0 18 23 19 12 12 11 9 3 -1 -2 -3 -3 -3 -2 1 3 4 5 4 3 4 5 7
1 2 2 2 2 2 2 0 -1 -1 -1 -1 -0 1 2 2 3 2 1 0 0 1 2 2 2 2 4 7 9 10 10 11 12 12 9 6 3 -2 -11 -6 1 9 14 10 8 7 10 12 14 15 17 9 -3 -12 -16 -10 -1 8 18 15 0 -15 -21 -5 7 11 9 7 6 6 4 -0 -2 -1 -0 0 2 3 3 4 4 4 4 1 -1 -2
2 2 1 0 0 -0 -1 -2 -1 -1 -1 -1 0 1 2 2 1 0 -0 -0 1 2 3 3 3 4 5 7 9 11 12 13 12 10 7 6 4 0 -7 -6 -1 6 11 10 8 5 2 5 9 13 16 15 11 5 -1 -4 -4 -1 8 17 15 4 -11 -11 -6 -0 5 6 7 8 9 5 2 0 0 1 3 4 3 1 -1 -1 -1 -1 -3 -4
0 -0 -1 -1 -2 -1 -1 -1 -1 -1 -1 -1 0 1 1 1 -0 -1 -1 -0 1 2 3 4 3 3 4 7 9 11 14 13 12 9 6 5 4 2 -3 -6 -2 3 7 9 10 9 5 3 5 9 13 15 16 14 8 1 -4 -5 -1 5 9 9 8 5 5 5 5 3 4 7 9 7 2 -2 -3 -2 -1 0 0 -1 -3 -3 -2 -2 -2 -3
-1 -1 -1 -2 -1 -1 -0 -1 -1 -1 -1 -1 -0 0 0 -0 -1 -1 -0 0 1 2 3 4 3 3 3 5 6 9 13 14 12 9 6 5 4 3 0 -5 -3 1 4 5 6 7 8 9 10 10 6 5 9 15 20 11 2 -3 -1 2 3 2 2 5 8 9 8 3 2 3 5 5 2 -1 -2 -3 -2 0 2 2 1 1 1 1 0 0
-1 -1 -1 -1 -1 -1 -1 -1 -1 -1 -1 -0 0 1 0 -0 -1 -1 -0 0 1 2 3 3 3 3 4 4 4 7 11 12 11 9 6 7 7 6 2 -4 -5 -2 3 5 5 2 1 4 9 14 14 5 1 4 14 18 14 6 1 2 1 -1 -1 1 4 6 8 6 5 6 5 1 -1 -2 -2 -2 -0 2 4 5 5 5 5 5 4 3
-1 -1 -1 -1 -1 -1 -1 -1 -1 -1 -1 0 1 1 1 0 -0 -1 -1 0 0 1 1 2 3 4 4 4 5 6 9 9 9 7 6 8 10 11 7 -0 -6 -7 -2 5 7 6 2 -1 1 6 12 11 7 5 8 15 17 14 9 5 0 -3 -3 -0 2 4 4 6 9 11 11 6 -0 -5 -9 -7 -3 1 4 4 4 5 6 6 6 6
-1 -0 0 -0 -0 0 0 -0 -0 -1 -0 0 1 1 1 1 0 -1 -1 -0 -0 0 1 2 3 3 4 4 5 6 8 9 8 6 4 7 12 15 13 4 -4 -9 -9 -0 6 9 7 4 4 5 7 8 9 9 11 15 16 16 14 11 6 -0 -5 -1 3 4 2 3 6 8 9 9 8 3 -7 -10 -7 -3 1 1 2 3 4 5 5 5
-1 -0 0 0 0 1 1 1 1 1 1 1 1 1 1 1 1 0 -1 -1 -1 -0 1 3 3 3 3 4 5 6 8 8 8 6 3 4 10 16 18 10 0 -9 -15 -8 -1 5 5 4 5 7 8 10 10 10 9 12 12 11 11 14 10 4 -4 -1 2 4 2 2 3 4 3 5 7 7 2 -7 -9 -6 -3 -1 1 3 4 3 3 3
Height
1390 1389 1388 1389 1389 1389 1389 1389 1390 1390 1390 1389 1389 1389 1389 1390 1390 1390 1391 1392 1393 1394 1395 1397 1398 1398 1399 1399 1400 1402 1403 1405 1406 1407 1409 1410 1411 1413 1414 1417 1419 1421 1423 1424 1425 1427 1430 1432 1433 1434 1435 1436 1437 1439 1440 1443 1445 1447 1449 1451 1453 1454 1456 1457 1459 1460 1462 1464 1466 1468 1470 1473 1476 1478 1480 1482 1484 1486 1488 1490 1492 1494 1496 1498 1500 1502
1389 1388 1387 1388 1388 1388 1388 1388 1389 1390 1389 1389 1389 1389 1389 1389 1389 1389 1389 1390 1392 1393 1394 1395 1396 1396 1397 1398 1399 1400 1401 1403 1404 1405 1406 1408 1409 1411 1413 1415 1417 1419 1421 1423 1424 1426 1429 1431 1432 1432 1433 1434 1436 1437 1439 1441 1443 1445 1448 1449 1451 1453 1455 1456 1457 1459 1460 1462 1464 1466 1468 1471 1473 1476 1478 1480 1483 1484 1486 1489 1491 1493 1494 1497 1499 1501
1388 1387 1386 1386 1387 1387 1387 1387 1388 1389 1389 1389 1389 1388 1388 1388 1387 1388 1388 1389 1390 1391 1393 1394 1394 1395 1395 1396 1397 1398 1399 1400 1401 1402 1404 1405 1407 1409 1411 1413 1415 1418 1420 1421 1423 1425 1427 1429 1429 1430 1432 1433 1434 1436 1438 1439 1442 1444 1446 1448 1450 1452 1453 1454 1456 1457 1459 1460 1462 1464 1466 1469 1471 1474 1476 1479 1481 1483 1485 1487 1489 1491 1493 1495 1498 1500
1387 1386 1385 1385 1386 1386 1386 1386 1387 1388 1389 1389 1389 1388 1388 1387 1387 1387 1387 1388 1389 1390 1391 1393 1393 1394 1394 1394 1394 1395 1396 1397 1399 1400 1402 1403 1405 1407 1409 1412 1414 1416 1419 1420 1421 1424 1426 1427 1428 1429 1430 1431 1433 1435 1437 1439 1440 1443 1445 1447 1449 1450 1452 1454 1455 1456 1457 1459 1460 1462 1464 1467 1469 1472 1474 1477 1479 1481 1484 1486 1488 1490 1492 1494 1497 1499
1386 1386 1385 1385 1384 1384 1384 1385 1386 1387 1388 1388 1388 1388 1387 1387 1387 1387 1387 1387 1388 1389 1390 1391 1392 1392 1392 1392 1392 1392 1393 1394 1396 1398 1400 1402 1404 1406 1408 1410 1412 1415 1417 1418 1420 1422 1424 1426 1427 1427 1429 1430 1432 1434 1435 1437 1439 1441 1444 1446 1448 1449 1451 1452 1454 1455 1456 1458 1459 1461 1463 1465 1467 1470 1473 1475 1477 1479 1482 1484 1486 1489 1490 1493 1495 1498
1385 1385 1384 1384 1384 1384 1384 1384 1385 1386 1386 1386 1386 1387 1387 1387 1387 1386 1386 1386 1387 1387 1388 1389 1390 1391 1391 1390 1390 1390 1391 1393 1394 1397 1399 1400 1402 1404 1407 1409 1411 1413 1415 1417 1419 1420 1422 1424 1425 1426 1427 1429 1431 1433 1434 1436 1438 1439 1442 1444 1446 1448 1450 1451 1453 1454 1456 1457 1458 1460 1462 1464 1466 1469 1471 1474 1476 1478 1480 1483 1485 1487 1489 1492 1494 1496
1384 1384 1384 1383 1383 1383 1383 1383 1383 1384 1384 1385 1385 1385 1386 1386 1386 1386 1386 1385 1385 1385 1386 1388 1388 1389 1389 1389 1389 1389 1390 1392 1394 1396 1398 1400 1402 1404 1405 1408 1410 1412 1414 1416 1418 1419 1421 1422 1423 1424 1426 1428 1429 1431 1433 1435 1436 1438 1440 1442 1444 1447 1449 1450 1452 1453 1455 1456 1457 1459 1461 1463 1465 1468 1469 1472 1474 1477 1479 1481 1484 1486 1489 1491 1493 1495
1384 1383 1383 1382 1382 1381 1381 1381 1382 1383 1383 1384 1384 1384 1384 1384 1385 1385 1385 1384 1384 1384 1385 1386 1386 1387 1388 1389 1389 1389 1389 1391 1393 1395 1397 1399 1401 1403 1405 1407 1409 1411 1413 1415 1416 1418 1419 1420 1422 1423 1424 1426 1428 1430 1432 1434 1435 1437 1439 1441 1443 1445 1447 1449 1451 1452 1454 1455 1456 1458 1460 1462 1464 1466 1469 1470 1473 1475 1478 1480 1482 1485 1487 1490 1492 1494
1383 1383 1382 1381 1381 1380 1380 1380 1381 1382 1383 1383 1383 1383 1383 1383 1384 1384 1383 1382 1382 1383 1383 1384 1384 1385 1387 1388 1389 1389 1389 1390 1392 1394 1397 1399 1401 1403 1405 1407 1409 1411 1413 1414 1415 1417 1418 1419 1420 1421 1423 1425 1427 1429 1431 1433 1434 1436 1438 1439 1441 1444 1446 1448 1449 1451 1453 1454 1455 1457 1459 1461 1463 1465 1467 1469 1472 1474 1477 1479 1481 1484 1486 1488 1491 1494
1383 1382 1381 1380 1380 1380 1379 1379 1380 1381 1381 1382 1382 1382 1382 1382 1382 1382 1381 1380 1380 1380 1381 1382 1383 1384 1386 1387 1388 1388 1388 1389 1391 1394 1396 1398 1400 1403 1405 1406 1408 1410 1411 1412 1414 1415 1417 1418 1419 1420 1422 1424 1425 1428 1430 1432 1433 1435 1437 1438 1440 1442 1444 1446 1448 1450 1451 1453 1454 1455 1457 1459 1461 1464 1466 1468 1470 1473 1475 1478 1480 1483 1485 1487 1489 1492
1382 1381 1380 1380 1380 1380 1380 1380 1381 1381 1381 1381 1381 1381 1382 1382 1382 1381 1380 1379 1378 1379 1380 1381 1383 1384 1385 1387 1388 1389 1389 1389 1390 1393 1395 1396 1399 1402 1404 1406 1407 1408 1409 1411 1413 1414 1415 1417 1418 1419 1420 1422 1424 1426 1429 1431 1432 1434 1435 1437 1439 1441 1443 1445 1447 1448 1450 1452 1453 1454 1456 1458 1460 1462 1464 1466 1469 1471 1473 1476 1479 1482 1484 1486 1489 1491
1381 1380 1379 1379 1379 1379 1379 1379 1379 1379 1380 1380 1380 1381 1381 1381 1381 1380 1379 1379 1379 1379 1380 1380 1382 1384 1385 1386 1388 1389 1389 1389 1390 1392 1394 1395 1397 1400 1403 1405 1406 1407 1408 1409 1411 1413 1414 1415 1417 1418 1419 1421 1423 1425 1427 1429 1431 1433 1434 1436 1438 1439 1441 1443 1445 1447 1449 1450 1452 1454 1455 1457 1459 1461 1463 1465 1467 1469 1472 1474 1477 1480 1483 1485 1488 1490
1380 1380 1379 1378 1378 1377 1377 1376 1377 1378 1379 1379 1380 1380 1380 1381 1381 1380 1380 1380 1380 1381 1381 1381 1382 1384 1385 1386 1388 1389 1390 1389 1390 1391 1393 1394 1396 1399 1402 1403 1404 1405 1406 1408 1409 1411 1413 1414 1415 1417 1418 1419 1421 1424 1426 1428 1430 1432 1433 1435 1437 1439 1440 1442 1444 1446 1447 1449 1451 1453 1455 1457 1458 1460 1462 1464 1466 1468 1470 1473 1475 1479 1482 1484 1487 1489
1380 1379 1379 1378 1378 1377 1377 1377 1377 1378 1379 1379 1380 1380 1380 1381 1381 1381 1381 1381 1381 1382 1383 1383 1383 1384 1385 1387 1388 1389 1390 1390 1390 1392 1393 1394 1395 1398 1401 1401 1402 1403 1404 1406 1408 1410 1412 1413 1414 1415 1417 1418 1420 1422 1424 1427 1429 1430 1432 1434 1435 1437 1439 1441 1443 1445 1446 1448 1450 1452 1454 1456 1458 1459 1461 1463 1464 1467 1469 1471 1474 1477 1480 1483 1486 1489
1380 1379 1379 1379 1378 1378 1377 1377 1377 1378 1378 1379 1379 1380 1380 1380 1380 1381 1382 1382 1382 1382 1383 1384 1384 1384 1385 1387 1388 1389 1390 1390 1391 1392 1393 1393 1394 1396 1399 1399 1400 1401 1403 1405 1407 1409 1411 1412 1413 1414 1416 1417 1419 1421 1423 1425 1427 1429 1431 1432 1434 1436 1438 1440 1442 1444 1446 1447 1449 1451 1453 1455 1457 1459 1460 1462 1464 1465 1468 1470 1473 1476 1479 1481 1484 1487
1380 1379 1379 1379 1379 1379 1378 1378 1378 1378 1378 1379 1379 1379 1379 1379 1380 1380 1381 1382 1383 1383 1384 1384 1385 1385 1386 1387 1388 1389 1389 1390 1391 1393 1394 1394 1394 1395 1397 1397 1398 1400 1402 1404 1405 1407 1409 1411 1412 1414 1415 1416 1418 1419 1421 1424 1426 1428 1429 1431 1432 1434 1436 1438 1440 1443 1445 1446 1448 1450 1452 1454 1456 1458 1459 1461 1462 1464 1467 1469 1472 1475 1478 1480 1483 1486
1380 1380 1379 1379 1379 1379 1379 1379 1378 1378 1378 1378 1379 1379 1379 1379 1379 1380 1381 1382 1382 1383 1383 1384 1385 1385 1386 1387 1387 1388 1389 1391 1393 1394 1394 1394 1394 1393 1394 1395 1397 1399 1400 1402 1404 1406 1408 1409 1411 1412 1414 1415 1417 1419 1420 1422 1424 1426 1428 1429 1431 1433 1435 1437 1439 1441 1444 1445 1447 1449 1451 1453 1454 1456 1458 1459 1461 1464 1466 1468 1471 1473 1476 1479 1481 1484
1381 1380 1380 1379 1379 1379 1379 1379 1378 1378 1378 1378 1378 1378 1378 1378 1379 1379 1380 1381 1381 1382 1382 1383 1384 1385 1385 1386 1387 1388 1390 1392 1393 1394 1395 1394 1392 1391 1392 1393 1395 1397 1399 1401 1403 1404 1406 1408 1410 1411 1413 1414 1416 1418 1419 1421 1422 1424 1426 1428 1429 1431 1434 1436 1438 1440 1443 1445 1447 1448 1450 1452 1454 1455 1457 1459 1460 1463 1465 1467 1469 1472 1474 1477 1479 1482
1381 1380 1380 1379 1379 1379 1379 1379 1378 1378 1378 1377 1377 1377 1377 1378 1378 1378 1379 1379 1380 1380 1381 1382 1383 1384 1385 1386 1387 1388 1389 1391 1392 1393 1393 1392 1390 1389 1390 1392 1394 1396 1398 1399 1401 1403 1405 1406 1408 1410 1412 1414 1415 1416 1418 1419 1421 1423 1425 1426 1428 1430 1433 1435 1437 1439 1441 1444 1446 1448 1449 1451 1453 1454 1456 1458 1460 1462 1464 1466 1469 1471 1474 1476 1478 1481
1381 1380 1380 1380 1379 1379 1379 1379 1378 1378 1378 1377 1377 1377 1376 1376 1377 1377 1378 1378 1379 1379 1380 1380 1382 1383 1384 1385 1386 1387 1388 1389 1390 1391 1390 1389 1388 1388 1390 1391 1393 1395 1397 1398 1400 1402 1403 1405 1407 1409 1411 1413 1414 1415 1417 1418 1419 1421 1423 1425 1427 1429 1432 1434 1436 1438 1440 1443 1445 1447 1449 1450 1452 1454 1456 1458 1460 1462 1464 1466 1468 1470 1472 1474 1477 1479
1381 1380 1380 1380 1379 1379 1379 1379 1378 1378 1378 1377 1377 1376 1376 1375 1376 1376 1376 1377 1378 1379 1379 1379 1380 1381 1382 1383 1384 1385 1387 1388 1389 1389 1388 1387 1386 1387 1389 1391 1392 1394 1396 1397 1399 1400 1402 1403 1405 1407 1409 1411 1413 1414 1415 1417 1418 1420 1422 1424 1426 1429 1431 1434 1436 1438 1439 1442 1444 1446 1448 1449 1451 1453 1455 1457 1459 1461 1463 1465 1467 1469 1471 1474 1476 1478
1381 1380 1380 1380 1380 1379 1379 1378 1378 1378 1377 1377 1377 1376 1375 1375 1375 1375 1376 1376 1377 1377 1378 1378 1378 1379 1380 1381 1383 1384 1385 1386 1387 1387 1386 1385 1385 1387 1388 1390 1392 1393 1395 1396 1398 1399 1400 1402 1403 1405 1408 1410 1411 1413 1414 1416 1417 1419 1421 1424 1426 1428 1430 1433 1435 1437 1439 1440 1443 1445 1447 1449 1451 1453 1455 1457 1459 1460 1462 1464 1466 1469 1471 1473 1474 1476
1380 1380 1379 1379 1379 1379 1379 1378 1377 1377 1377 1377 1376 1376 1375 1375 1375 1375 1375 1376 1376 1376 1376 1377 1377 1379 1379 1380 1381 1383 1384 1385 1385 1385 1385 1384 1385 1386 1388 1389 1391 1392 1394 1395 1396 1398 1399 1400 1402 1404 1406 1408 1410 1412 1413 1414 1416 1418 1420 1423 1425 1427 1429 1432 1434 1436 1438 1439 1442 1444 1446 1449 1451 1453 1454 1456 1458 1459 1461 1463 1465 1468 1470 1472 1473 1474
1380 1379 1379 1379 1379 1378 1378 1377 1377 1376 1376 1376 1376 1375 1375 1375 1375 1375 1375 1375 1375 1376 1376 1377 1377 1378 1379 1379 1380 1381 1381 1382 1384 1384 1384 1384 1384 1385 1387 1388 1389 1391 1392 1394 1395 1396 1397 1399 1400 1402 1405 1407 1409 1410 1412 1413 1415 1417 1419 1422 1424 1426 1429 1431 1433 1435 1437 1439 1441 1444 1446 1448 1450 1452 1453 1455 1457 1459 1460 1462 1464 1467 1469 1470 1471 1472
1379 1379 1379 1378 1378 1378 1377 1376 1376 1376 1376 1375 1375 1374 1374 1374 1374 1374 1374 1374 1375 1375 1375 1376 1376 1377 1377 1378 1379 1379 1380 1381 1382 1383 1384 1384 1384 1385 1386 1387 1388 1389 1391 1392 1394 1395 1396 1397 1399 1401 1403 1405 1406 1408 1410 1412 1414 1416 1418 1421 1423 1425 1427 1429 1431 1433 1435 1438 1440 1443 1445 1447 1449 1450 1452 1454 1456 1458 1459 1461 1463 1466 1468 1469 1470 1471
1379 1378 1378 1377 1377 1376 1376 1376 1376 1376 1375 1375 1374 1373 1373 1374 1374 1374 1373 1373 1374 1374 1374 1375 1375 1375 1376 1377 1378 1378 1379 1380 1382 1383 1383 1384 1384 1384 1385 1386 1387 1389 1390 1391 1392 1394 1395 1396 1398 1399 1401 1403 1404 1406 1409 1411 1413 1415 1417 1419 1422 1424 1426 1428 1430 1432 1434 1437 1439 1441 1443 1445 1447 1449 1451 1453 1455 1457 1458 1460 1462 1464 1467 1468 1469 1470
1377 1377 1376 1376 1375 1375 1375 1375 1375 1374 1374 1374 1373 1373 1372 1372 1372 1372 1372 1372 1373 1373 1374 1374 1374 1374 1375 1376 1377 1378 1379 1380 1381 1382 1383 1384 1385 1385 1384 1385 1386 1388 1389 1390 1392 1393 1394 1395 1397 1398 1399 1401 1403 1405 1407 1409 1412 1414 1416 1418 1420 1422 1424 1427 1429 1431 1434 1436 1438 1440 1442 1444 1445 1448 1450 1452 1454 1455 1457 1458 1460 1463 1465 1467 1468 1470
1376 1376 1375 1375 1374 1374 1374 1374 1373 1373 1373 1373 1372 1372 1371 1371 1371 1371 1371 1371 1372 1372 1372 1373 1373 1374 1374 1375 1376 1377 1378 1379 1380 1381 1383 1384 1385 1384 1384 1384 1385 1387 1388 1390 1392 1393 1394 1395 1396 1397 1398 1399 1401 1403 1405 1408 1410 1413 1414 1417 1419 1421 1423 1426 1429 1431 1433 1435 1437 1439 1441 1443 1444 1446 1448 1450 1452 1454 1455 1457 1459 1461 1463 1465 1467 1469
1376 1375 1374 1374 1373 1373 1373 1372 1372 1372 1372 1371 1371 1371 1370 1370 1370 1369 1369 1370 1370 1371 1371 1371 1372 1373 1373 1374 1375 1376 1377 1378 1379 1380 1383 1384 1384 1383 1383 1384 1384 1386 1388 1389 1391 1392 1394 1394 1395 1396 1397 1399 1400 1402 1404 1407 1409 1411 1413 1415 1417 1420 1422 1425 1428 1430 1432 1434 1436 1438 1440 1442 1444 1445 1447 1449 1450 1452 1454 1455 1457 1460 1462 1464 1465 1467
1375 1374 1374 1373 1373 1372 1372 1371 1371 1371 1371 1370 1370 1369 1369 1369 1369 1369 1368 1369 1369 1369 1369 1370 1371 1372 1372 1373 1374 1376 1377 1377 1378 1380 1382 1383 1382 1381 1382 1383 1384 1385 1386 1388 1389 1391 1392 1394 1395 1396 1397 1398 1399 1401 1403 1405 1408 1410 1413 1415 1417 1419 1422 1424 1427 1429 1431 1434 1435 1437 1439 1441 1443 1444 1446 1447 1449 1451 1452 1454 1456 1458 1461 1463 1465 1467
1374 1374 1373 1373 1372 1372 1371 1371 1370 1370 1369 1369 1369 1368 1368 1368 1368 1367 1367 1367 1368 1368 1369 1369 1370 1371 1371 1372 1373 1374 1376 1376 1377 1379 1381 1381 1380 1380 1380 1382 1383 1384 1385 1386 1387 1388 1390 1392 1394 1395 1396 1397 1399 1400 1402 1404 1407 1409 1412 1414 1417 1420 1422 1424 1426 1429 1431 1434 1435 1437 1439 1440 1441 1443 1445 1447 1449 1450 1451 1453 1454 1457 1459 1461 1464 1467
1374 1374 1373 1372 1372 1371 1370 1370 1369 1369 1368 1368 1368 1367 1367 1367 1366 1366 1366 1366 1367 1367 1368 1368 1369 1369 1370 1371 1372 1373 1374 1375 1376 1378 1380 1379 1379 1379 1380 1381 1382 1383 1384 1385 1385 1385 1387 1390 1392 1394 1395 1397 1398 1399 1401 1404 1406 1408 1410 1413 1416 1420 1422 1424 1426 1429 1432 1434 1435 1437 1439 1440 1442 1443 1444 1446 1449 1450 1452 1453 1454 1456 1458 1460 1462 1465
1374 1373 1373 1372 1371 1370 1370 1369 1369 1368 1367 1367 1366 1366 1366 1366 1365 1365 1365 1365 1365 1366 1366 1367 1367 1368 1369 1370 1371 1372 1373 1374 1374 1376 1378 1379 1379 1379 1379 1380 1381 1382 1383 1384 1385 1385 1385 1387 1389 1391 1393 1395 1397 1398 1400 1403 1405 1407 1409 1411 1414 1418 1420 1423 1425 1428 1430 1433 1435 1437 1439 1440 1442 1443 1444 1446 1448 1450 1452 1454 1455 1457 1458 1460 1462 1464
1374 1373 1372 1372 1371 1370 1369 1369 1368 1367 1367 1366 1366 1365 1365 1365 1364 1364 1364 1364 1364 1364 1365 1365 1366 1367 1368 1369 1370 1371 1372 1372 1373 1374 1377 1378 1379 1378 1379 1380 1381 1381 1381 1382 1383 1384 1385 1386 1387 1388 1391 1393 1395 1397 1399 1402 1404 1406 1408 1409 1412 1414 1417 1419 1422 1424 1427 1430 1433 1435 1437 1439 1441 1443 1444 1446 1448 1450 1452 1454 1456 1458 1459 1460 1462 1464
1374 1373 1372 1371 1370 1369 1369 1368 1367 1367 1366 1365 1365 1364 1364 1364 1364 1364 1364 1363 1363 1363 1364 1365 1365 1366 1367 1368 1369 1370 1371 1371 1372 1373 1375 1378 1378 1378 1379 1379 1380 1380 1379 1379 1381 1383 1385 1386 1386 1386 1388 1391 1395 1397 1399 1401 1403 1405 1407 1408 1410 1413 1415 1417 1419 1422 1424 1427 1430 1433 1435 1438 1440 1442 1444 1445 1447 1449 1451 1453 1455 1458 1460 1461 1462 1464
1373 1372 1371 1370 1369 1369 1368 1367 1367 1366 1365 1365 1364 1364 1364 1363 1363 1363 1363 1363 1363 1363 1363 1364 1365 1365 1366 1367 1368 1369 1370 1370 1371 1372 1374 1376 1378 1378 1378 1379 1380 1379 1378 1378 1379 1381 1383 1384 1386 1386 1386 1389 1393 1396 1399 1400 1401 1403 1405 1407 1409 1412 1414 1416 1418 1420 1422 1425 1428 1431 1433 1435 1438 1440 1442 1444 1447 1449 1451 1453 1454 1457 1459 1461 1463 1464
1373 1372 1371 1370 1369 1368 1367 1367 1366 1365 1365 1364 1364 1364 1363 1363 1363 1362 1362 1362 1362 1362 1363 1363 1364 1365 1366 1367 1368 1369 1369 1370 1371 1372 1373 1375 1377 1377 1377 1378 1379 1379 1378 1377 1377 1379 1380 1382 1384 1386 1387 1388 1390 1394 1397 1399 1400 1402 1404 1406 1408 1410 1413 1416 1418 1419 1421 1424 1426 1429 1432 1434 1436 1438 1441 1444 1446 1448 1451 1453 1454 1456 1458 1460 1463 1465
1372 1371 1370 1369 1369 1368 1367 1366 1366 1365 1365 1364 1364 1364 1363 1363 1363 1362 1362 1362 1362 1362 1362 1363 1363 1364 1365 1366 1367 1368 1369 1370 1370 1371 1372 1374 1376 1377 1377 1378 1379 1379 1378 1376 1376 1377 1378 1379 1382 1384 1387 1388 1390 1392 1395 1397 1399 1401 1403 1405 1407 1409 1412 1415 1417 1419 1420 1423 1425 1428 1431 1433 1435 1438 1440 1443 1445 1447 1450 1452 1454 1456 1459 1461 1464 1467
1372 1371 1370 1369 1369 1368 1367 1366 1366 1365 1365 1364 1364 1364 1364 1363 1363 1362 1362 1362 1362 1362 1362 1363 1363 1364 1364 1365 1367 1368 1369 1369 1370 1371 1372 1373 1374 1375 1376 1377 1378 1378 1377 1376 1376 1377 1377 1378 1379 1381 1384 1387 1390 1393 1394 1395 1397 1398 1401 1404 1407 1410 1412 1415 1417 1418 1420 1421 1424 1427 1430 1433 1435 1438 1440 1443 1445 1447 1449 1452 1455 1457 1459 1461 1464 1468
1373 1372 1371 1370 1369 1368 1368 1367 1366 1366 1365 1365 1365 1364 1364 1363 1363 1363 1362 1362 1362 1362 1363 1363 1363 1364 1364 1365 1366 1368 1369 1369 1370 1371 1372 1373 1374 1375 1376 1377 1377 1377 1377 1377 1377 1377 1378 1378 1379 1380 1382 1384 1388 1392 1394 1396 1397 1397 1399 1402 1407 1410 1413 1414 1416 1418 1419 1421 1423 1426 1429 1432 1435 1438 1441 1444 1446 1448 1450 1453 1455 1458 1460 1461 1463 1466
1374 1373 1372 1371 1370 1369 1369 1368 1367 1367 1366 1366 1365 1364 1364 1364 1363 1363 1362 1362 1362 1363 1363 1364 1364 1364 1365 1366 1367 1368 1369 1369 1370 1371 1372 1372 1373 1374 1375 1377 1377 1377 1376 1376 1377 1377 1378 1378 1379 1381 1384 1385 1387 1390 1393 1396 1398 1398 1399 1400 1404 1408 1412 1414 1416 1417 1419 1421 1423 1426 1429 1432 1435 1438 1441 1444 1447 1449 1451 1454 1456 1459 1462 1463 1464 1465
1375 1374 1373 1372 1371 1370 1369 1369 1368 1368 1367 1366 1366 1365 1364 1364 1363 1363 1363 1363 1363 1364 1364 1364 1364 1365 1365 1366 1367 1368 1368 1369 1370 1371 1371 1371 1372 1374 1375 1377 1377 1376 1376 1375 1376 1378 1379 1379 1380 1381 1384 1385 1387 1390 1393 1396 1398 1399 1399 1400 1402 1406 1411 1415 1417 1418 1419 1421 1424 1426 1429 1431 1434 1438 1440 1444 1447 1450 1453 1455 1458 1460 1463 1465 1467 1468
1377 1376 1375 1374 1373 1372 1371 1370 1369 1368 1368 1367 1366 1365 1365 1364 1364 1364 1364 1364 1364 1364 1365 1365 1365 1365 1366 1366 1367 1368 1368 1369 1369 1370 1371 1371 1372 1374 1375 1377 1377 1377 1376 1375 1376 1378 1380 1381 1382 1383 1384 1385 1386 1388 1391 1395 1398 1399 1400 1400 1401 1404 1410 1414 1417 1418 1419 1421 1423 1425 1428 1430 1433 1436 1439 1443 1446 1450 1453 1456 1458 1461 1463 1465 1468 1470
1379 1378 1376 1375 1374 1373 1372 1371 1370 1369 1369 1368 1367 1366 1366 1365 1365 1364 1364 1365 1365 1365 1365 1365 1365 1365 1366 1366 1367 1368 1368 1369 1369 1369 1370 1371 1372 1373 1375 1377 1378 1378 1377 1376 1377 1378 1380 1382 1383 1384 1385 1386 1387 1388 1391 1394 1397 1399 1402 1403 1403 1404 1406 1411 1414 1416 1418 1420 1422 1424 1426 1429 1432 1435 1439 1443 1447 1450 1454 1456 1459 1462 1464 1466 1469 1471
1381 1379 1378 1376 1375 1374 1373 1372 1371 1370 1370 1369 1368 1367 1367 1366 1366 1366 1366 1366 1366 1366 1366 1365 1365 1365 1366 1366 1367 1367 1368 1368 1368 1368 1369 1371 1372 1373 1375 1377 1378 1378 1378 1378 1378 1379 1380 1382 1384 1385 1386 1388 1389 1389 1391 1394 1396 1399 1402 1404 1404 1405 1406 1410 1412 1414 1416 1419 1422 1424 1427 1429 1431 1435 1439 1443 1447 1451 1454 1457 1460 1463 1465 1468 1470 1472
1382 1381 1379 1378 1376 1375 1374 1374 1373 1372 1371 1370 1369 1369 1368 1368 1368 1367 1367 1367 1367 1366 1366 1366 1365 1365 1365 1365 1366 1367 1367 1367 1367 1368 1369 1370 1372 1374 1375 1378 1379 1379 1379 1379 1379 1381 1382 1383 1384 1386 1388 1389 1391 1392 1393 1394 1396 1398 1401 1403 1404 1406 1409 1412 1414 1416 1416 1418 1421 1425 1428 1430 1432 1435 1439 1443 1447 1451 1455 1458 1461 1464 1466 1469 1471 1473
1384 1382 1381 1380 1379 1377 1376 1375 1374 1374 1373 1372 1371 1371 1370 1370 1369 1369 1369 1368 1367 1367 1366 1366 1366 1365 1365 1365 1365 1366 1366 1366 1366 1367 1369 1370 1372 1374 1376 1379 1381 1381 1380 1380 1380 1382 1384 1386 1387 1388 1388 1389 1391 1394 1395 1395 1395 1397 1400 1402 1404 1406 1409 1414 1417 1419 1419 1421 1423 1426 1429 1431 1433 1435 1438 1442 1446 1450 1455 1458 1461 1464 1467 1469 1471 1474
1385 1384 1383 1382 1380 1379 1378 1377 1376 1375 1374 1374 1373 1373 1372 1372 1371 1370 1369 1369 1368 1368 1367 1367 1366 1365 1365 1365 1365 1366 1366 1366 1367 1368 1369 1371 1373 1374 1376 1379 1381 1383 1382 1381 1381 1382 1384 1386 1389 1390 1390 1390 1391 1393 1396 1396 1397 1398 1400 1403 1404 1406 1409 1414 1417 1420 1423 1424 1426 1428 1430 1432 1433 1435 1438 1441 1445 1449 1454 1458 1461 1464 1467 1470 1472 1474
1388 1386 1385 1384 1382 1381 1380 1379 1378 1377 1376 1375 1375 1374 1374 1374 1373 1372 1371 1370 1369 1369 1368 1367 1367 1366 1365 1365 1365 1366 1366 1367 1367 1369 1370 1373 1374 1375 1377 1379 1381 1384 1384 1383 1383 1383 1384 1386 1389 1391 1393 1393 1393 1394 1396 1397 1398 1399 1401 1403 1405 1407 1410 1414 1418 1421 1424 1425 1427 1429 1431 1433 1434 1435 1436 1439 1443 1448 1452 1456 1460 1464 1467 1470 1473 1475
1389 1388 1387 1385 1384 1383 1382 1381 1379 1379 1378 1377 1377 1376 1376 1375 1375 1374 1373 1372 1371 1370 1369 1368 1368 1367 1367 1366 1366 1366 1367 1368 1368 1370 1372 1374 1376 1377 1377 1378 1381 1384 1386 1386 1386 1386 1386 1388 1390 1392 1394 1396 1396 1397 1397 1399 1399 1401 1402 1404 1406 1408 1410 1415 1419 1422 1424 1426 1429 1430 1432 1434 1436 1437 1438 1439 1442 1446 1450 1455 1459 1464 1467 1470 1472 1474
1391 1390 1389 1387 1386 1385 1384 1382 1381 1380 1379 1379 1378 1378 1377 1377 1376 1375 1374 1374 1372 1371 1370 1370 1369 1368 1368 1368 1368 1368 1368 1369 1369 1371 1373 1375 1377 1378 1378 1379 1380 1383 1386 1388 1389 1389 1389 1391 1393 1395 1397 1398 1399 1400 1400 1400 1401 1402 1404 1407 1409 1410 1412 1416 1419 1423 1426 1428 1431 1433 1435 1437 1439 1440 1441 1441 1443 1446 1450 1454 1459 1463 1466 1469 1472 1474